Location: Home
(42.5358°N, 72.7383°W)
Time: 07:01:54
(UTC-05:00)

Envisat - Pass Details

Date: 31 October 2021
Orbit: 764 x 766 km, 98.2° (Epoch: 07 December)

Event Time Altitude Azimuth Distance (km) Brightness Sun altitude
Rises 05:58:14 0° 13° (NNE) 3,241 6.4 -16.2°
Reaches altitude 10° 06:00:33 10° 14° (NNE) 2,310 5.6 -15.8°
Maximum altitude 06:05:39 87° 103° (ESE) 772 3.0 -14.8°
Drops below altitude 10° 06:10:43 10° 193° (SSW) 2,293 5.4 -13.9°
Sets 06:13:00 0° 194° (SSW) 3,214 6.2 -13.5°
